Startpagina
METAR-TAF:

METAR-TAF

Vliegvelden :

Wasilla, Alaska, Verenigde Staten

breedte: 61-34-19N, lengte: 149-32-26W, hoogte: 106 m

Actueel weer

Dit bericht is 25 minuten geleden gemaakt, om 12:56 UTC
Wind 4 kt uit het noordnoordoosten
Temperatuur 2°C
Vochtigheid 60%
Druk 985 hPa
Zicht: 16.1 km
Gebroken wolken op 11000 ft

METAR: PAWS 181256Z AUTO 02004KT 10SM BKN110 02/M05 A2908 RMK AO2 SLP853 T00221050 FZRANO

Tijdstip: 05:21 (13:21 UTC)


TAF: ontbreekt

Waarnemingen en weersverwachtingen van meer dan 4000 vliegvelden (METAR en TAF).

De beschikbare stations zijn de gele en rode punten op de kaart.

Ga met uw muis naar het station om de naam te zien.

Klik dan om waarnemingen en weersverwachtingen te zien.

kaart wijzigen: klik op de groene knoppen met een zwart kruis om in te zoomen, op de groene knop met een streepje om uit te zoomen of op de groene pijlen voor aangrenzende kaarten.


METAR-TAF: